This demonstration page uses our WeatherBlox Daily Observations layout. Learn more.

Left ArrowRight Arrow

36.19886, -115.1175

Hourly Observations for August 15, 2022

Temp ( °F °C ) Dew Point ( °F °C ) Humidity (%) Winds ( mph kmh ) Pressure ( in mb ) Visibility ( mi km ) Precip ( " mm )
12:53 am 00:53 Clear 83 28.3 62 16.7 49 49 Calm 29.93 1014 10 16 0.00 0.00
1:53 am 01:53 Clear 83 28.3 62 16.7 49 49 Calm 29.90 1013 10 16 0.00 0.00
2:53 am 02:53 Clear 81 27.2 63 17.2 54 54 E 6 9 29.90 1012 10 16 0.00 0.00
3:53 am 03:53 Clear 80 26.7 62 16.7 54 54 E 6 9 29.89 1012 10 16 0.00 0.00
4:53 am 04:53 Clear 81 27.2 63 17.2 54 54 Calm 29.88 1012 10 16 0.00 0.00
5:53 am 05:53 Clear 81 27.2 62 16.7 53 53 Calm 29.89 1012 10 16 0.00 0.00
6:53 am 06:53 Sunny 81 27.2 62 16.7 53 53 Calm 29.91 1013 10 16 0.00 0.00
7:53 am 07:53 Sunny 82 27.8 63 17.2 53 53 Calm 29.91 1013 10 16 0.00 0.00
8:53 am 08:53 Sunny 86 30 63 17.2 46 46 Calm 29.91 1013 10 16 0.00 0.00
9:53 am 09:53 Sunny 87 30.6 62 16.7 43 43 VRB 3 6 29.91 1013 10 16 0.00 0.00
10:53 am 10:53 Sunny 88 31.1 60 15.6 39 39 E 9 15 29.91 1013 10 16 0.00 0.00
11:53 am 11:53 Sunny 91 32.8 61 16.1 37 37 VRB 6 9 29.90 1013 10 16 0.00 0.00
12:53 pm 12:53 Sunny 91 32.8 60 15.6 36 36 SSE 9 15 29.89 1012 10 16 0.00 0.00
1:53 pm 13:53 Sunny 94 34.4 59 15 31 31 ESE 10 17 29.85 1011 10 16 0.00 0.00
2:53 pm 14:53 Sunny 95 35 57 13.9 28 28 VRB 5 7 29.82 1010 10 16 0.00 0.00
3:53 pm 15:53 Sunny 95 35 57 13.9 28 28 Calm 29.80 1009 10 16 0.00 0.00
4:53 pm 16:53 Sunny 97 36.1 56 13.3 26 26 ESE 3 6 29.78 1009 10 16 0.00 0.00
5:53 pm 17:53 Sunny 97 36.1 56 13.3 26 26 VRB 5 7 29.78 1008 10 16 0.00 0.00
6:53 pm 18:53 Sunny 97 36.1 57 13.9 27 27 SE 9 15 29.78 1008 10 16 0.00 0.00
7:53 pm 19:53 Clear 95 35 57 13.9 28 28 ESE 6 9 29.80 1009 10 16 0.00 0.00
8:53 pm 20:53 Partly Cloudy 94 34.4 57 13.9 29 29 E 7 11 29.82 1010 10 16 0.00 0.00
9:20 pm 21:20 Mostly Cloudy with Nearby Thunderstorms 93 33.9 57 13.9 30 30 NNW 24 39 29.71 1006 10 16 0.00 0.00
9:38 pm 21:38 Partly Cloudy with Nearby Thunderstorms 87 30.6 61 16.1 42 42 NW 23 37 29.75 1008 10 16 0.00 0.00
9:46 pm 21:46 Mostly Cloudy 86 30 61 16.1 43 43 NW 20 31 29.76 1008 10 16 0.00 0.00
9:53 pm 21:53 Partly Cloudy 87 30.6 60 15.6 40 40 NW 22 35 29.87 1012 10 16 0.00 0.00
10:20 pm 22:20 Mostly Cloudy with Nearby Thunderstorms 86 30 57 13.9 37 37 NW 17 28 29.76 1008 10 16 0.00 0.00
10:44 pm 22:44 Partly Cloudy with Thunderstorms 82 27.8 60 15.6 47 47 NNW 24 39 29.78 1009 10 16 0.00 0.00
10:53 pm 22:53 Partly Cloudy with Thunderstorms 81 27.2 60 15.6 49 49 NW 35 56 29.88 1012 10 16 0.00 0.00
11:12 pm 23:12 Partly Cloudy with Nearby Thunderstorms 82 27.8 60 15.6 47 47 NW 23 37 29.78 1009 10 16 0.00 0.00
11:28 pm 23:28 Partly Cloudy 82 27.8 60 15.6 47 47 WNW 20 31 29.78 1008 10 16 0.00 0.00
11:53 pm 23:53 Clear 85 29.4 58 14.4 40 40 WNW 17 28 29.85 1011 10 16 0.00 0.00

Powered by AerisWeather